Weather History for Williston, ND

Change the Weather History Date:

Thursday, November 1, 2012

  Actual Average Record
Temperature  
Mean Temperature 33 °F 35 °F  
Max Temperature 40 °F 47 °F 72 °F (1983)
Min Temperature 26 °F 24 °F -6 °F (1984)
Degree Days  
Heating Degree Days 32 30  
Month to date heating degree days 32 30  
Since 1 July heating degree days 1012 1057  
Cooling Degree Days 0 0  
Month to date cooling degree days 0 0  
Year to date cooling degree days 532 456  
Moisture  
Dew Point 28 °F    
Average Humidity 78    
Maximum Humidity 92    
Minimum Humidity 64    
Precipitation  
Precipitation 0.00 in 0.03 in 1.98 in (2000)
Month to date precipitation 0.00 0.03  
Year to date precipitation 11.14 13.13  
Snow  
Snow 0.00 in 0.10 in 2.70 in (1936)
Month to date snowfall 0.0 0.1  
Since 1 July snowfall T 2.9  
Since 1 September snowfall T 2.9  
Snow Depth 0.00 in    
Sea Level Pressure  
Sea Level Pressure 30.08 in    
Wind  
Wind Speed 13 mph (ESE)    
Max Wind Speed 23 mph    
Max Gust Speed 29 mph    
Visibility 10 miles    
Events      
T = Trace of Precipitation, MM = Missing Value Source: NWS Daily Summary

Daily Weather History Graph

Daily Weather History Graph

Search for Another Location

Airport:

Trip Planner

Search our weather history database for the weather conditions in past years. The results will help you decide how hot, cold, wet, or windy it might be!

Date:

Astronomy

Nov. 01, 2012 Rise Set
Actual Time 8:40 AM CDT 6:34 PM CDT
Civil Twilight 8:08 AM CDT 7:07 PM CDT
Nautical Twilight 7:31 AM CDT 7:44 PM CDT
Astronomical Twilight 6:54 AM CDT 8:20 PM CDT
Moon 8:23 PM CDT (11/1) 11:25 AM CDT (11/1)
Length of Visible Light 10h 59m
Length of Day
9h 54m
Waning Gibbous, 93% of the Moon is Illuminated
Nov 1
Waning Gibbous
Nov 6
Last Quarter
Nov 13
New
Nov 20
First Quarter
Nov 28
Full

Hourly Weather History & Observations

Time (CDT) Temp. Windchill Dew Point Humidity Pressure Visibility Wind Dir Wind Speed Gust Speed Precip Events Conditions
12:44 AM 30.2 °F 23.4 °F 28.4 °F 93% 30.14 in 10.0 mi NE 6.9 mph - N/A   Mostly Cloudy
12:52 AM 30.0 °F 24.1 °F 28.0 °F 92% 30.21 in 10.0 mi NE 5.8 mph - N/A   Mostly Cloudy
1:40 AM 30.2 °F 24.3 °F 28.4 °F 93% 30.12 in 10.0 mi ENE 5.8 mph - N/A   Overcast
1:52 AM 30.9 °F 27.5 °F 28.0 °F 89% 30.20 in 10.0 mi NE 3.5 mph - N/A   Overcast
2:52 AM 30.9 °F 24.3 °F 28.9 °F 92% 30.17 in 10.0 mi ENE 6.9 mph - N/A   Overcast
3:52 AM 32.0 °F 22.5 °F 28.9 °F 88% 30.16 in 10.0 mi East 12.7 mph - N/A   Overcast
4:52 AM 30.9 °F 21.7 °F 28.0 °F 89% 30.16 in 10.0 mi ESE 11.5 mph - N/A   Overcast
5:09 AM 30.2 °F 18.9 °F 28.4 °F 93% 30.09 in 10.0 mi ESE 16.1 mph - N/A   Overcast
5:52 AM 30.0 °F 19.1 °F 28.0 °F 92% 30.15 in 10.0 mi East 15.0 mph - N/A   Overcast
6:52 AM 28.9 °F 17.7 °F 27.0 °F 92% 30.14 in 10.0 mi East 15.0 mph - N/A   Overcast
7:52 AM 28.0 °F 17.0 °F 25.0 °F 88% 30.14 in 10.0 mi East 13.8 mph - N/A   Overcast
8:25 AM 26.6 °F 14.7 °F 24.8 °F 93% 30.06 in 10.0 mi ESE 15.0 mph - N/A   Overcast
8:52 AM 27.0 °F 17.3 °F 25.0 °F 92% 30.13 in 10.0 mi East 10.4 mph - N/A   Overcast
9:52 AM 28.0 °F 17.0 °F 26.1 °F 92% 30.12 in 10.0 mi ESE 13.8 mph - N/A   Overcast
10:52 AM 28.9 °F 19.2 °F 27.0 °F 92% 30.11 in 7.0 mi ESE 11.5 mph - N/A   Overcast
11:26 AM 30.2 °F 20.8 °F 28.4 °F 93% 30.03 in 8.0 mi SE 11.5 mph 20.7 mph N/A   Overcast
11:52 AM 32.0 °F 21.6 °F 28.9 °F 88% 30.09 in 9.0 mi ESE 15.0 mph 21.9 mph N/A   Overcast
12:52 PM 36.0 °F 25.6 °F 30.0 °F 79% 30.06 in 10.0 mi ESE 18.4 mph 24.2 mph N/A   Overcast
1:04 PM 35.6 °F 24.5 °F 28.4 °F 75% 29.99 in 10.0 mi ESE 20.7 mph 26.5 mph N/A   Mostly Cloudy
1:16 PM 35.6 °F 25.5 °F 28.4 °F 75% 29.98 in 10.0 mi ESE 17.3 mph 23.0 mph N/A   Scattered Clouds
1:52 PM 37.9 °F 28.2 °F 28.9 °F 70% 30.03 in 10.0 mi SE 18.4 mph 25.3 mph N/A   Partly Cloudy
2:52 PM 37.9 °F 28.5 °F 28.0 °F 68% 30.00 in 8.0 mi ESE 17.3 mph 27.6 mph N/A   Clear
3:52 PM 39.0 °F 30.3 °F 28.0 °F 65% 29.99 in 10.0 mi ESE 16.1 mph 23.0 mph N/A   Clear
4:52 PM 39.0 °F 30.6 °F 28.0 °F 65% 30.00 in 10.0 mi ESE 15.0 mph - N/A   Clear
5:52 PM 36.0 °F 27.5 °F 28.9 °F 76% 30.01 in 10.0 mi East 12.7 mph - N/A   Partly Cloudy
6:52 PM 33.1 °F 23.0 °F 28.0 °F 82% 30.02 in 10.0 mi East 15.0 mph - N/A   Clear
7:52 PM 32.0 °F 22.5 °F 26.1 °F 79% 30.05 in 10.0 mi ESE 12.7 mph 19.6 mph N/A   Overcast
8:52 PM 32.0 °F 23.6 °F 26.1 °F 79% 30.05 in 10.0 mi East 10.4 mph - N/A   Overcast
9:52 PM 32.0 °F 22.5 °F 26.1 °F 79% 30.04 in 10.0 mi East 12.7 mph - N/A   Overcast
10:52 PM 30.2 °F 20.2 °F 26.6 °F 86% 29.97 in 10.0 mi ESE 12.7 mph - N/A   Overcast
11:12 PM 30.2 °F 21.3 °F 26.6 °F 86% 29.97 in 10.0 mi East 10.4 mph - N/A   Overcast
11:47 PM 30.2 °F 20.8 °F 26.6 °F 86% 29.96 in 10.0 mi ESE 11.5 mph - N/A   Overcast
11:52 PM 30.9 °F 21.2 °F 26.1 °F 82% 30.03 in 10.0 mi ESE 12.7 mph 20.7 mph N/A   Overcast